TimeEDT,TemperatureF,Dew PointF,Humidity,Sea Level PressureIn,VisibilityMPH,Wind Direction,Wind SpeedMPH,Gust SpeedMPH,PrecipitationIn,Events,Conditions,WindDirDegrees,DateUTC
12:16 AM,27.1,25.7,94,29.40,3.0,Calm,Calm,-,N/A,Snow,Light Snow,0,2013-03-19 04:16:00
12:37 AM,26.6,25.7,96,29.39,3.0,WSW,3.5,-,N/A,Snow,Light Snow,240,2013-03-19 04:37:00
12:57 AM,27.1,25.3,93,29.39,1.8,West,6.9,-,N/A,Snow,Light Snow,270,2013-03-19 04:57:00
1:16 AM,26.6,24.8,93,29.38,1.8,West,3.5,-,N/A,Snow,Light Snow,280,2013-03-19 05:16:00
1:37 AM,26.6,24.8,93,29.38,1.8,Calm,Calm,-,N/A,Snow,Light Snow,0,2013-03-19 05:37:00
1:56 AM,26.4,24.8,94,29.37,1.8,Calm,Calm,-,N/A,Snow,Light Snow,0,2013-03-19 05:56:00
2:17 AM,26.2,24.6,94,29.37,1.2,West,5.8,-,N/A,Snow,Light Snow,260,2013-03-19 06:17:00
2:37 AM,26.1,24.4,94,29.37,1.2,West,4.6,-,N/A,Snow,Light Snow,270,2013-03-19 06:37:00
2:56 AM,26.1,24.4,94,29.37,1.2,West,4.6,-,N/A,Snow,Snow,280,2013-03-19 06:56:00
3:17 AM,26.1,24.3,93,29.37,1.5,West,4.6,-,N/A,Snow,Light Snow,280,2013-03-19 07:17:00
3:37 AM,26.6,24.8,93,29.37,2.0,West,6.9,-,N/A,Snow,Light Snow,280,2013-03-19 07:37:00
3:56 AM,25.2,21.9,87,29.37,7.0,WNW,13.8,-,N/A,Snow,Light Snow,300,2013-03-19 07:56:00
4:17 AM,23.9,20.8,88,29.37,2.0,WNW,10.4,19.6,N/A,Snow,Light Snow,300,2013-03-19 08:17:00
4:37 AM,23.0,19.6,87,29.38,2.0,West,13.8,18.4,N/A,Snow,Light Snow,280,2013-03-19 08:37:00
4:56 AM,21.4,18.0,87,29.38,3.0,West,10.4,19.6,N/A,Snow,Light Snow,280,2013-03-19 08:56:00
5:17 AM,20.8,17.2,86,29.38,4.0,West,9.2,18.4,N/A,Snow,Light Snow,280,2013-03-19 09:17:00
5:37 AM,20.7,17.1,86,29.38,5.0,West,11.5,-,N/A,Snow,Light Snow,270,2013-03-19 09:37:00
5:56 AM,20.5,17.1,87,29.38,4.0,West,11.5,-,N/A,Snow,Light Snow,270,2013-03-19 09:56:00
6:50 AM,19.4,15.8,86,29.38,5.0,West,11.5,-,N/A,Snow,Light Snow,280,2013-03-19 10:50:00
7:55 AM,21.2,17.6,86,29.40,2.0,West,13.8,-,N/A,Snow,Light Snow,270,2013-03-19 11:55:00
8:50 AM,21.2,17.6,86,29.41,4.0,West,11.5,-,N/A,Snow,Light Snow,270,2013-03-19 12:50:00
9:50 AM,23.0,17.6,80,29.42,4.0,WNW,16.1,23.0,N/A,Snow,Light Snow,290,2013-03-19 13:50:00
10:55 AM,23.0,17.6,80,29.44,5.0,WNW,21.9,31.1,N/A,Snow,Light Snow,290,2013-03-19 14:55:00
11:55 AM,24.8,17.6,74,29.47,5.0,West,25.3,34.5,N/A,Snow,Light Snow,280,2013-03-19 15:55:00
12:50 PM,24.8,15.8,69,29.49,5.0,WNW,26.5,42.6,N/A,Snow,Blowing Snow,290,2013-03-19 16:50:00
1:50 PM,24.8,15.8,69,29.52,7.0,WNW,26.5,38.0,N/A,,Overcast,290,2013-03-19 17:50:00
2:55 PM,24.8,15.8,69,29.57,7.0,WNW,21.9,38.0,N/A,,Mostly Cloudy,290,2013-03-19 18:55:00
3:50 PM,24.8,15.8,69,29.60,7.0,West,23.0,34.5,N/A,,Overcast,280,2013-03-19 19:50:00
4:55 PM,24.8,14.0,64,29.64,10.0,West,23.0,36.8,N/A,,Overcast,280,2013-03-19 20:55:00
5:50 PM,24.8,14.0,64,29.67,10.0,WNW,16.1,27.6,N/A,,Overcast,300,2013-03-19 21:50:00
6:50 PM,23.0,14.0,68,29.70,10.0,WNW,20.7,28.8,N/A,,Overcast,290,2013-03-19 22:50:00
7:50 PM,23.0,14.0,68,29.73,5.0,WNW,12.7,20.7,N/A,Snow,Light Snow,290,2013-03-19 23:50:00
8:50 PM,21.2,12.2,68,29.75,10.0,WNW,12.7,20.7,N/A,,Overcast,300,2013-03-20 00:50:00
9:55 PM,19.4,14.0,80,29.76,10.0,WNW,10.4,-,N/A,Snow,Light Snow,290,2013-03-20 01:55:00
10:17 PM,19.8,13.1,75,29.76,10.0,WNW,15.0,20.7,N/A,,Mostly Cloudy,290,2013-03-20 02:17:00
10:37 PM,19.4,12.9,76,29.76,10.0,West,12.7,16.1,N/A,,Mostly Cloudy,280,2013-03-20 02:37:00
10:56 PM,19.0,12.7,76,29.76,10.0,West,12.7,19.6,N/A,,Mostly Cloudy,280,2013-03-20 02:56:00
11:17 PM,18.9,12.9,78,29.77,10.0,WNW,10.4,-,N/A,Snow,Light Snow,290,2013-03-20 03:17:00
11:36 PM,18.7,13.5,80,29.76,4.0,West,8.1,-,N/A,Snow,Light Snow,280,2013-03-20 03:36:00
11:57 PM,18.1,12.9,80,29.76,10.0,West,9.2,-,N/A,,Mostly Cloudy,280,2013-03-20 03:57:00